Weather in Taba

Egypt     29°29′30″N   34°53′58″E
temp.,
°C
wind,
m/s
gust,
m/s
humid.,
%
clouds,
%
prec.,
mm/h
press.,
hPa
HPBL,
m
29 november, mon
mon2923:00+23nne332390 0.0 101923
02:00+22nne3324100 0.0 101922
05:00+21nne33255 0.0 101925
08:00+24nne22215 0.0 101963
11:00+29n23165 0.0 1018682
14:00+31nne24155 0.0 1015986
17:00+27ne222273 0.0 101611
20:00+24ene23245 0.0 101813
30 november, tue
tue3023:00+24ene22255 0.0 101711
02:00+23e222661 0.0 101711
05:00+22e22275 0.0 101611
08:00+25e11236 0.0 101732
11:00+28sw222090 0.0 1016277
14:00+29s231771 0.0 1014508
17:00+25s22234 0.0 101413
20:00+23nnw3324100 0.0 101622
1 december, wed
wed123:00+21n4429100 0.0 101635
02:00+18n555512 0.0 1016112
05:00+17n45706 0.0 1016143
08:00+19n346597 0.0 1017659
11:00+21n4551100 0.0 10161026
14:00+22nnw564096 0.0 10141030
17:00+20n574615 0.0 1015417
20:00+18n455230 0.0 1017254
2 december, thu
thu223:00+16n34669 0.0 1017209
02:00+15n346939 0.0 1018195
05:00+15n456928 0.0 1018618
08:00+15n346897 0.1 1019441
11:00+19n55445 0.0 10181219
14:00+20n76402 0.0 1015945
17:00+18n710475 0.0 1017375
20:00+17nne69510 0.0 1018214
3 december, fri
fri323:00+16nne56500 0.0 1018137
02:00+15nne45510 0.0 1018127
05:00+14nne345592 0.0 1019104
08:00+16nne3349100 0.0 1020240
11:00+20n3336100 0.0 1018752
14:00+22nnw333268 0.0 1016650
17:00+19n344199 0.0 1016139
20:00+18nne344223 0.0 101786